| time (UTC) | temp F | wind direction | speed MPH | gust MPH | rain 1hr in | rain 24hr in | rain mn in | humidity % | barometer mb |
| 20260905154522 | 69 | 35 | 0.0 | 4.0 | 0.00 | 0.00 | 0.00 | 75 | 1009.9 |
| 20260905154022 | 69 | 355 | 1.0 | 7.0 | 0.00 | 0.00 | 0.00 | 75 | 1010.0 |
| 20260905153527 | 69 | 75 | 1.0 | 4.0 | 0.00 | 0.00 | 0.00 | 76 | 1010.0 |
| 20260905153022 | 69 | 127 | 1.0 | 4.0 | 0.00 | 0.00 | 0.00 | 77 | 1010.0 |
| 20260905152543 | 69 | 69 | 1.0 | 4.0 | 0.00 | 0.00 | 0.00 | 79 | 1009.9 |
| 20260905152102 | 69 | 51 | 1.0 | 4.0 | 0.00 | 0.00 | 0.00 | 78 | 1009.9 |
| 20260905151521 | 69 | 347 | 1.0 | 6.0 | 0.00 | 0.00 | 0.00 | 77 | 1009.8 |
| 20260905151041 | 69 | 23 | 1.0 | 6.0 | 0.00 | 0.00 | 0.00 | 77 | 1009.8 |
| 20260905150521 | 69 | 338 | 0.0 | 2.0 | 0.00 | 0.00 | 0.00 | 77 | 1009.7 |
| 20260905150043 | 69 | 333 | 1.0 | 2.0 | 0.00 | 0.00 | 0.00 | 78 | 1009.8 |
| 20260905145542 | 69 | 345 | 0.0 | 3.0 | 0.00 | 0.00 | 0.00 | 77 | 1009.8 |
| 20260905144522 | 69 | 29 | 1.0 | 3.0 | 0.00 | 0.00 | 0.00 | 77 | 1009.8 |
| 20260905144022 | 69 | 321 | 1.0 | 2.0 | 0.00 | 0.00 | 0.00 | 77 | 1009.8 |
| 20260905143522 | 69 | 330 | 1.0 | 3.0 | 0.00 | 0.00 | 0.00 | 76 | 1009.8 |
| 20260905143122 | 69 | 347 | 1.0 | 2.0 | 0.00 | 0.00 | 0.00 | 76 | 1009.7 |
| 20260905142522 | 69 | 343 | 1.0 | 2.0 | 0.00 | 0.00 | 0.00 | 78 | 1009.8 |
| 20260905142021 | 69 | 16 | 0.0 | 2.0 | 0.00 | 0.00 | 0.00 | 79 | 1009.7 |
| 20260905141521 | 68 | 43 | 0.0 | 2.0 | 0.00 | 0.00 | 0.00 | 79 | 1009.8 |
| 20260905141021 | 68 | 347 | 0.0 | 2.0 | 0.00 | 0.00 | 0.00 | 80 | 1009.9 |
| 20260905140523 | 68 | 341 | 0.0 | 2.0 | 0.00 | 0.00 | 0.00 | 80 | 1009.9 |
| 20260905140022 | 68 | 344 | 0.0 | 1.0 | 0.00 | 0.00 | 0.00 | 80 | 1009.9 |
| 20260905135522 | 68 | 344 | 0.0 | 2.0 | 0.00 | 0.00 | 0.00 | 80 | 1009.9 |
| 20260905135102 | 68 | 53 | 1.0 | 2.0 | 0.00 | 0.00 | 0.00 | 79 | 1009.9 |
| 20260905133021 | 68 | 71 | 1.0 | 3.0 | 0.00 | 0.00 | 0.00 | 80 | 1009.6 |
| 20260905132521 | 68 | 331 | 1.0 | 2.0 | 0.00 | 0.00 | 0.00 | 80 | 1009.6 |
| 20260905132021 | 68 | 342 | 0.0 | 2.0 | 0.00 | 0.00 | 0.00 | 81 | 1009.5 |
| 20260905131520 | 68 | 342 | 1.0 | 2.0 | 0.00 | 0.00 | 0.00 | 80 | 1009.5 |
| 20260905131022 | 68 | 330 | 1.0 | 2.0 | 0.00 | 0.00 | 0.00 | 79 | 1009.5 |
| 20260905130522 | 68 | 63 | 1.0 | 2.0 | 0.00 | 0.00 | 0.00 | 80 | 1009.4 |
| 20260905130022 | 69 | 13 | 1.0 | 2.0 | 0.00 | 0.00 | 0.00 | 79 | 1009.4 |
| 20260905125521 | 69 | 31 | 1.0 | 7.0 | 0.00 | 0.00 | 0.00 | 79 | 1009.5 |
| 20260905125021 | 68 | 65 | 1.0 | 4.0 | 0.00 | 0.00 | 0.00 | 80 | 1009.4 |
| 20260905124521 | 67 | 351 | 0.0 | 2.0 | 0.00 | 0.00 | 0.00 | 80 | 1009.3 |
| 20260905124021 | 67 | 333 | 1.0 | 2.0 | 0.00 | 0.00 | 0.00 | 82 | 1009.4 |
| 20260905123521 | 67 | 332 | 0.0 | 2.0 | 0.00 | 0.00 | 0.00 | 81 | 1009.2 |
| 20260905123043 | 67 | 6 | 1.0 | 3.0 | 0.00 | 0.00 | 0.00 | 81 | 1009.1 |
| 20260905122542 | 67 | 350 | 0.0 | 1.0 | 0.00 | 0.00 | 0.00 | 83 | 1009.2 |
| 20260905122022 | 66 | 347 | 1.0 | 2.0 | 0.00 | 0.00 | 0.00 | 83 | 1009.1 |
| 20260905121522 | 66 | 346 | 0.0 | 2.0 | 0.00 | 0.00 | 0.00 | 84 | 1009.0 |
| 20260905121022 | 66 | 327 | 0.0 | 2.0 | 0.00 | 0.00 | 0.00 | 85 | 1009.0 |
| 20260905120521 | 65 | 346 | 0.0 | 1.0 | 0.00 | 0.00 | 0.00 | 86 | 1008.9 |
| 20260905120041 | 65 | 0.0 | 0.0 | 0.00 | 0.00 | 0.00 | 87 | 1009.0 | |
| 20260905115521 | 64 | 344 | 0.0 | 2.0 | 0.00 | 0.00 | 0.00 | 88 | 1009.0 |
| 20260905115024 | 64 | 0.0 | 0.0 | 0.00 | 0.00 | 0.00 | 88 | 1008.8 | |
| 20260905114522 | 64 | 61 | 0.0 | 2.0 | 0.00 | 0.00 | 0.00 | 88 | 1008.8 |
| 20260905114022 | 63 | 93 | 0.0 | 1.0 | 0.00 | 0.00 | 0.00 | 88 | 1008.9 |
| 20260905113522 | 63 | 0.0 | 1.0 | 0.00 | 0.00 | 0.00 | 89 | 1008.8 | |
| 20260905113021 | 63 | 0.0 | 0.0 | 0.00 | 0.00 | 0.00 | 89 | 1008.8 | |
| 20260905112521 | 63 | 0.0 | 0.0 | 0.00 | 0.00 | 0.00 | 90 | 1008.7 | |
| 20260905112041 | 62 | 0.0 | 0.0 | 0.00 | 0.00 | 0.00 | 91 | 1008.7 | |
| 20260905111523 | 62 | 0.0 | 0.0 | 0.00 | 0.00 | 0.00 | 92 | 1008.6 | |
| 20260905111021 | 61 | 0.0 | 0.0 | 0.00 | 0.00 | 0.00 | 93 | 1008.6 | |
| 20260905110522 | 61 | 0.0 | 0.0 | 0.00 | 0.00 | 0.00 | 94 | 1008.5 | |
| 20260905110022 | 60 | 0.0 | 0.0 | 0.00 | 0.00 | 0.00 | 96 | 1008.5 | |
| 20260905105527 | 60 | 0.0 | 0.0 | 0.00 | 0.00 | 0.00 | 96 | 1008.4 | |
| 20260905105022 | 60 | 0.0 | 0.0 | 0.00 | 0.00 | 0.00 | 96 | 1008.4 | |
| 20260905104521 | 60 | 0.0 | 0.0 | 0.00 | 0.00 | 0.00 | 97 | 1008.4 | |
| 20260905104021 | 60 | 0.0 | 0.0 | 0.00 | 0.00 | 0.00 | 97 | 1008.5 | |
| 20260905103521 | 59 | 0.0 | 0.0 | 0.00 | 0.00 | 0.00 | 97 | 1008.4 | |
| 20260905103021 | 59 | 0.0 | 0.0 | 0.00 | 0.00 | 0.00 | 97 | 1008.4 | |
| 20260905102523 | 59 | 0.0 | 0.0 | 0.00 | 0.00 | 0.00 | 97 | 1008.4 | |
| 20260905102023 | 59 | 0.0 | 0.0 | 0.00 | 0.00 | 0.00 | 97 | 1008.4 | |
| 20260905101522 | 59 | 0.0 | 0.0 | 0.00 | 0.00 | 0.00 | 97 | 1008.4 | |
| 20260905101022 | 59 | 0.0 | 0.0 | 0.00 | 0.00 | 0.00 | 97 | 1008.5 | |
| 20260905100522 | 59 | 0.0 | 0.0 | 0.00 | 0.00 | 0.00 | 97 | 1008.3 | |
| 20260905100022 | 59 | 0.0 | 0.0 | 0.00 | 0.00 | 0.00 | 97 | 1008.4 | |
| 20260905095521 | 59 | 0.0 | 0.0 | 0.00 | 0.00 | 0.00 | 97 | 1008.3 | |
| 20260905095041 | 58 | 0.0 | 0.0 | 0.00 | 0.00 | 0.00 | 97 | 1008.4 | |
| 20260905094523 | 59 | 0.0 | 0.0 | 0.00 | 0.00 | 0.00 | 97 | 1008.2 | |
| 20260905094022 | 59 | 0.0 | 0.0 | 0.00 | 0.00 | 0.00 | 97 | 1008.2 | |
| 20260905093522 | 59 | 0.0 | 0.0 | 0.00 | 0.00 | 0.00 | 97 | 1008.2 | |
| 20260905093022 | 59 | 0.0 | 0.0 | 0.00 | 0.00 | 0.00 | 96 | 1008.2 | |
| 20260905092522 | 59 | 0.0 | 0.0 | 0.00 | 0.00 | 0.00 | 96 | 1008.3 | |
| 20260905092021 | 59 | 0.0 | 0.0 | 0.00 | 0.00 | 0.00 | 96 | 1008.2 | |
| 20260905091521 | 59 | 0.0 | 0.0 | 0.00 | 0.00 | 0.00 | 96 | 1008.1 | |
| 20260905091041 | 59 | 0.0 | 0.0 | 0.00 | 0.00 | 0.00 | 96 | 1008.1 | |
| 20260905090523 | 59 | 0.0 | 0.0 | 0.00 | 0.00 | 0.00 | 96 | 1008.1 | |
| 20260905090023 | 59 | 0.0 | 0.0 | 0.00 | 0.00 | 0.00 | 96 | 1008.1 | |
| 20260905085522 | 59 | 0.0 | 0.0 | 0.00 | 0.00 | 0.00 | 96 | 1008.1 | |
| 20260905085022 | 59 | 0.0 | 0.0 | 0.00 | 0.00 | 0.00 | 95 | 1008.1 | |
| 20260905084522 | 59 | 0.0 | 0.0 | 0.00 | 0.00 | 0.00 | 95 | 1008.0 | |
| 20260905084022 | 59 | 0.0 | 0.0 | 0.00 | 0.00 | 0.00 | 95 | 1008.0 | |
| 20260905083521 | 59 | 0.0 | 0.0 | 0.00 | 0.00 | 0.00 | 95 | 1008.1 | |
| 20260905083021 | 60 | 0.0 | 0.0 | 0.00 | 0.00 | 0.00 | 95 | 1008.0 | |
| 20260905082541 | 60 | 0.0 | 0.0 | 0.00 | 0.00 | 0.00 | 94 | 1008.0 | |
| 20260905082023 | 60 | 0.0 | 0.0 | 0.00 | 0.00 | 0.00 | 94 | 1008.0 | |
| 20260905081521 | 60 | 0.0 | 0.0 | 0.00 | 0.00 | 0.00 | 94 | 1008.0 | |
| 20260905081022 | 60 | 0.0 | 0.0 | 0.00 | 0.00 | 0.00 | 94 | 1008.0 | |
| 20260905080522 | 60 | 93 | 0.0 | 1.0 | 0.00 | 0.00 | 0.00 | 94 | 1008.1 |
| 20260905080022 | 60 | 93 | 0.0 | 1.0 | 0.00 | 0.00 | 0.00 | 94 | 1008.0 |
| 20260905075522 | 60 | 93 | 0.0 | 1.0 | 0.00 | 0.00 | 0.00 | 94 | 1008.1 |
| 20260905075021 | 60 | 0.0 | 0.0 | 0.00 | 0.00 | 0.00 | 93 | 1008.1 | |
| 20260905074521 | 60 | 0.0 | 0.0 | 0.00 | 0.00 | 0.00 | 93 | 1008.1 | |
| 20260905074023 | 60 | 0.0 | 0.0 | 0.00 | 0.00 | 0.00 | 93 | 1008.1 | |
| 20260905073523 | 60 | 0.0 | 0.0 | 0.00 | 0.00 | 0.00 | 93 | 1008.0 | |
| 20260905073022 | 60 | 0.0 | 0.0 | 0.00 | 0.00 | 0.00 | 93 | 1008.1 | |
| 20260905072522 | 61 | 0.0 | 0.0 | 0.00 | 0.00 | 0.00 | 93 | 1008.2 | |
| 20260905072022 | 61 | 0.0 | 0.0 | 0.00 | 0.00 | 0.00 | 92 | 1008.2 | |
| 20260905071522 | 61 | 0.0 | 0.0 | 0.00 | 0.00 | 0.00 | 92 | 1008.2 | |
| 20260905071021 | 61 | 0.0 | 0.0 | 0.00 | 0.00 | 0.00 | 92 | 1008.2 | |
| 20260905070521 | 61 | 0.0 | 0.0 | 0.00 | 0.00 | 0.00 | 91 | 1008.2 | |
| 20260905070021 | 61 | 93 | 0.0 | 1.0 | 0.00 | 0.00 | 0.00 | 91 | 1008.3 |
| 20260905065521 | 62 | 0.0 | 0.0 | 0.00 | 0.00 | 0.00 | 90 | 1008.3 | |
| 20260905065021 | 62 | 0.0 | 0.0 | 0.00 | 0.00 | 0.00 | 89 | 1008.2 | |
| 20260905064523 | 62 | 0.0 | 1.0 | 0.00 | 0.00 | 0.00 | 88 | 1008.4 | |
| 20260905064022 | 63 | 93 | 0.0 | 1.0 | 0.00 | 0.00 | 0.00 | 88 | 1008.4 |
| 20260905063522 | 63 | 92 | 0.0 | 1.0 | 0.00 | 0.00 | 0.00 | 88 | 1008.4 |
| 20260905063022 | 63 | 93 | 0.0 | 1.0 | 0.00 | 0.00 | 0.00 | 88 | 1008.6 |
| 20260905062522 | 62 | 93 | 0.0 | 1.0 | 0.00 | 0.00 | 0.00 | 88 | 1008.5 |
| 20260905062022 | 62 | 95 | 0.0 | 1.0 | 0.00 | 0.00 | 0.00 | 89 | 1008.6 |
| 20260905061521 | 62 | 94 | 0.0 | 1.0 | 0.00 | 0.00 | 0.00 | 89 | 1008.7 |
| 20260905061041 | 62 | 90 | 0.0 | 2.0 | 0.00 | 0.00 | 0.00 | 89 | 1008.7 |
| 20260905060521 | 62 | 41 | 0.0 | 1.0 | 0.00 | 0.00 | 0.00 | 89 | 1008.7 |
| 20260905060101 | 62 | 18 | 0.0 | 1.0 | 0.00 | 0.00 | 0.00 | 89 | 1008.7 |
| 20260905055523 | 63 | 0.0 | 1.0 | 0.00 | 0.00 | 0.00 | 89 | 1008.7 | |
| 20260905055022 | 63 | 18 | 0.0 | 1.0 | 0.00 | 0.00 | 0.00 | 89 | 1008.7 |
| 20260905054522 | 62 | 17 | 0.0 | 2.0 | 0.00 | 0.00 | 0.00 | 89 | 1008.7 |
| 20260905054123 | 62 | 0.0 | 0.0 | 0.00 | 0.00 | 0.00 | 89 | 1008.7 | |
| 20260905053542 | 62 | 0.0 | 0.0 | 0.00 | 0.00 | 0.00 | 89 | 1008.6 | |
| 20260905053042 | 62 | 0.0 | 0.0 | 0.00 | 0.00 | 0.00 | 89 | 1008.7 | |
| 20260905052521 | 62 | 0.0 | 0.0 | 0.00 | 0.00 | 0.00 | 90 | 1008.6 | |
| 20260905052041 | 63 | 0.0 | 0.0 | 0.00 | 0.00 | 0.00 | 89 | 1008.6 | |
| 20260905051523 | 63 | 0.0 | 0.0 | 0.00 | 0.00 | 0.00 | 90 | 1008.7 | |
| 20260905051022 | 63 | 0.0 | 0.0 | 0.00 | 0.00 | 0.00 | 90 | 1008.7 | |
| 20260905050522 | 62 | 0.0 | 0.0 | 0.00 | 0.00 | 0.00 | 90 | 1008.7 | |
| 20260905050022 | 62 | 0.0 | 0.0 | 0.00 | 0.00 | 0.00 | 90 | 1008.6 | |
| 20260905045522 | 62 | 0.0 | 0.0 | 0.00 | 0.00 | 0.00 | 91 | 1008.6 | |
| 20260905045022 | 62 | 0.0 | 0.0 | 0.00 | 0.00 | 0.00 | 91 | 1008.6 | |
| 20260905044521 | 63 | 0.0 | 0.0 | 0.00 | 0.00 | 0.00 | 91 | 1008.6 | |
| 20260905044021 | 63 | 0.0 | 0.0 | 0.00 | 0.00 | 0.00 | 91 | 1008.5 | |
| 20260905043521 | 63 | 0.0 | 0.0 | 0.00 | 0.00 | 0.00 | 91 | 1008.5 | |
| 20260905043042 | 63 | 0.0 | 0.0 | 0.00 | 0.00 | 0.00 | 91 | 1008.5 | |
| 20260905042542 | 63 | 0.0 | 0.0 | 0.00 | 0.00 | 0.00 | 91 | 1008.7 | |
| 20260905042022 | 63 | 0.0 | 0.0 | 0.00 | 0.00 | 0.00 | 90 | 1008.8 | |
| 20260905041522 | 63 | 0.0 | 0.0 | 0.00 | 0.00 | 0.00 | 90 | 1008.8 | |
| 20260905041102 | 63 | 0.0 | 0.0 | 0.00 | 0.00 | 0.00 | 90 | 1008.9 | |
| 20260905040542 | 63 | 0.0 | 0.0 | 0.00 | 0.00 | 0.00 | 90 | 1008.8 | |
| 20260905040021 | 63 | 0.0 | 0.0 | 0.00 | 0.00 | 0.00 | 89 | 1008.7 | |
| 20260905035521 | 63 | 0.0 | 0.0 | 0.00 | 0.00 | 0.00 | 89 | 1008.7 | |
| 20260905035042 | 63 | 0.0 | 0.0 | 0.00 | 0.00 | 0.00 | 89 | 1008.7 | |
| 20260905034525 | 64 | 0.0 | 0.0 | 0.00 | 0.00 | 0.00 | 88 | 1008.6 | |
| 20260905034022 | 64 | 0.0 | 0.0 | 0.00 | 0.00 | 0.00 | 88 | 1008.7 | |
| 20260905033522 | 64 | 0.0 | 0.0 | 0.00 | 0.00 | 0.00 | 87 | 1008.7 | |
| 20260905033022 | 64 | 0.0 | 0.0 | 0.00 | 0.00 | 0.00 | 87 | 1008.8 | |
| 20260905032521 | 64 | 0.0 | 0.0 | 0.00 | 0.00 | 0.00 | 87 | 1008.8 | |
| 20260905032021 | 64 | 0.0 | 0.0 | 0.00 | 0.00 | 0.00 | 87 | 1008.8 | |
| 20260905031521 | 64 | 0.0 | 0.0 | 0.00 | 0.00 | 0.00 | 87 | 1008.8 | |
| 20260905031021 | 64 | 0.0 | 0.0 | 0.00 | 0.00 | 0.00 | 87 | 1008.8 | |
| 20260905030520 | 64 | 0.0 | 1.0 | 0.00 | 0.00 | 0.00 | 87 | 1008.8 | |
| 20260905030022 | 64 | 272 | 0.0 | 1.0 | 0.00 | 0.00 | 0.00 | 86 | 1008.8 |
| 20260905025522 | 65 | 0.0 | 0.0 | 0.00 | 0.00 | 0.00 | 87 | 1008.8 | |
| 20260905025022 | 65 | 0.0 | 0.0 | 0.00 | 0.00 | 0.00 | 87 | 1008.8 | |
| 20260905024542 | 65 | 0.0 | 0.0 | 0.00 | 0.00 | 0.00 | 86 | 1008.8 | |
| 20260905024021 | 65 | 0.0 | 0.0 | 0.00 | 0.00 | 0.00 | 85 | 1008.9 | |
| 20260905023521 | 65 | 0.0 | 0.0 | 0.00 | 0.00 | 0.00 | 85 | 1008.8 | |
| 20260905023021 | 65 | 0.0 | 0.0 | 0.00 | 0.00 | 0.00 | 85 | 1008.9 | |
| 20260905022521 | 65 | 0.0 | 0.0 | 0.00 | 0.00 | 0.00 | 85 | 1009.0 | |
| 20260905022021 | 65 | 272 | 0.0 | 1.0 | 0.00 | 0.00 | 0.00 | 85 | 1009.0 |
| 20260905021522 | 65 | 0.0 | 0.0 | 0.00 | 0.00 | 0.00 | 85 | 1009.0 | |
| 20260905021022 | 66 | 0.0 | 0.0 | 0.00 | 0.00 | 0.00 | 84 | 1009.0 | |
| 20260905020522 | 66 | 0.0 | 0.0 | 0.00 | 0.00 | 0.00 | 83 | 1009.1 | |
| 20260905020022 | 66 | 0.0 | 0.0 | 0.00 | 0.00 | 0.00 | 84 | 1009.1 | |
| 20260905015521 | 66 | 0.0 | 0.0 | 0.00 | 0.00 | 0.00 | 84 | 1009.0 | |
| 20260905015021 | 66 | 0.0 | 0.0 | 0.00 | 0.00 | 0.00 | 83 | 1009.1 | |
| 20260905014521 | 66 | 0.0 | 0.0 | 0.00 | 0.00 | 0.00 | 85 | 1009.2 | |
| 20260905014021 | 66 | 0.0 | 0.0 | 0.00 | 0.00 | 0.00 | 85 | 1009.2 | |
| 20260905013521 | 66 | 0.0 | 0.0 | 0.00 | 0.00 | 0.00 | 83 | 1009.1 | |
| 20260905013042 | 66 | 0.0 | 0.0 | 0.00 | 0.00 | 0.00 | 83 | 1009.1 | |
| 20260905012542 | 66 | 0.0 | 0.0 | 0.00 | 0.00 | 0.00 | 82 | 1009.1 | |
| 20260905012022 | 66 | 0.0 | 0.0 | 0.00 | 0.00 | 0.00 | 82 | 1009.2 | |
| 20260905011542 | 67 | 0.0 | 0.0 | 0.00 | 0.00 | 0.00 | 83 | 1009.1 | |
| 20260905011022 | 67 | 0.0 | 0.0 | 0.00 | 0.00 | 0.00 | 82 | 1009.2 | |
| 20260905010521 | 67 | 0.0 | 0.0 | 0.00 | 0.00 | 0.00 | 82 | 1009.3 | |
| 20260905010041 | 67 | 0.0 | 0.0 | 0.00 | 0.00 | 0.00 | 81 | 1009.1 | |
| 20260905005520 | 67 | 0.0 | 0.0 | 0.00 | 0.00 | 0.00 | 80 | 1009.1 | |
| 20260905005020 | 68 | 0.0 | 0.0 | 0.00 | 0.00 | 0.00 | 81 | 1009.1 | |
| 20260905004522 | 68 | 0.0 | 0.0 | 0.00 | 0.00 | 0.00 | 81 | 1009.2 | |
| 20260905004022 | 68 | 0.0 | 0.0 | 0.00 | 0.00 | 0.00 | 79 | 1009.1 | |
| 20260905003522 | 68 | 0.0 | 0.0 | 0.00 | 0.00 | 0.00 | 78 | 1009.0 | |
| 20260905003022 | 68 | 0.0 | 0.0 | 0.00 | 0.00 | 0.00 | 79 | 1009.0 | |
| 20260905002521 | 69 | 0.0 | 0.0 | 0.00 | 0.00 | 0.00 | 79 | 1009.0 | |
| 20260905002021 | 69 | 0.0 | 0.0 | 0.00 | 0.00 | 0.00 | 77 | 1009.0 | |
| 20260905001521 | 69 | 0.0 | 0.0 | 0.00 | 0.00 | 0.00 | 77 | 1008.9 | |
| 20260905001021 | 69 | 0.0 | 0.0 | 0.00 | 0.00 | 0.00 | 76 | 1008.9 | |
| 20260905000520 | 70 | 0.0 | 0.0 | 0.00 | 0.00 | 0.00 | 76 | 1008.7 | |
| 20260905000022 | 70 | 0.0 | 0.0 | 0.00 | 0.00 | 0.00 | 74 | 1008.8 | |
| 20260904235522 | 70 | 0.0 | 0.0 | 0.00 | 0.00 | 0.00 | 74 | 1008.8 | |
| 20260904235022 | 70 | 0.0 | 1.0 | 0.00 | 0.00 | 0.00 | 74 | 1008.6 | |
| 20260904234607 | 71 | 0.0 | 1.0 | 0.00 | 0.00 | 0.00 | 74 | 1008.6 | |
| 20260904234021 | 71 | 0.0 | 0.0 | 0.00 | 0.00 | 0.00 | 76 | 1008.5 | |
| 20260904233521 | 71 | 0.0 | 0.0 | 0.00 | 0.00 | 0.00 | 74 | 1008.4 | |
| 20260904233021 | 72 | 0.0 | 0.0 | 0.00 | 0.00 | 0.00 | 73 | 1008.4 | |
| 20260904232520 | 72 | 0.0 | 0.0 | 0.00 | 0.00 | 0.00 | 74 | 1008.2 | |
| 20260904232020 | 72 | 0.0 | 0.0 | 0.00 | 0.00 | 0.00 | 74 | 1008.2 | |
| 20260904231522 | 73 | 0.0 | 0.0 | 0.00 | 0.00 | 0.00 | 69 | 1008.2 | |
| 20260904231022 | 73 | 0.0 | 0.0 | 0.00 | 0.00 | 0.00 | 68 | 1008.2 | |
| 20260904230542 | 73 | 0.0 | 0.0 | 0.00 | 0.00 | 0.00 | 68 | 1008.2 | |
| 20260904230022 | 74 | 0.0 | 0.0 | 0.00 | 0.00 | 0.00 | 68 | 1008.2 | |
| 20260904225521 | 74 | 0.0 | 0.0 | 0.00 | 0.00 | 0.00 | 67 | 1008.1 | |
| 20260904225021 | 74 | 0.0 | 0.0 | 0.00 | 0.00 | 0.00 | 68 | 1008.2 | |
| 20260904224523 | 75 | 0.0 | 0.0 | 0.00 | 0.00 | 0.00 | 66 | 1008.2 | |
| 20260904224022 | 75 | 0.0 | 0.0 | 0.00 | 0.00 | 0.00 | 64 | 1008.2 | |
| 20260904223522 | 76 | 0.0 | 0.0 | 0.00 | 0.00 | 0.00 | 62 | 1008.1 | |
| 20260904223022 | 77 | 0.0 | 2.0 | 0.00 | 0.00 | 0.00 | 61 | 1008.1 | |
| 20260904222522 | 77 | 319 | 0.0 | 2.0 | 0.00 | 0.00 | 0.00 | 59 | 1008.1 |
| 20260904222022 | 78 | 339 | 0.0 | 2.0 | 0.00 | 0.00 | 0.00 | 58 | 1008.1 |
| 20260904221541 | 78 | 339 | 1.0 | 2.0 | 0.00 | 0.00 | 0.00 | 58 | 1007.9 |
| 20260904221021 | 77 | 339 | 1.0 | 2.0 | 0.00 | 0.00 | 0.00 | 58 | 1007.9 |
| 20260904220521 | 78 | 339 | 1.0 | 2.0 | 0.00 | 0.00 | 0.00 | 59 | 1008.0 |
| 20260904220021 | 79 | 23 | 0.0 | 2.0 | 0.00 | 0.00 | 0.00 | 55 | 1008.0 |
| 20260904215520 | 79 | 102 | 0.0 | 1.0 | 0.00 | 0.00 | 0.00 | 56 | 1007.9 |
| 20260904215022 | 78 | 35 | 1.0 | 3.0 | 0.00 | 0.00 | 0.00 | 55 | 1007.9 |
| 20260904214522 | 78 | 313 | 1.0 | 2.0 | 0.00 | 0.00 | 0.00 | 57 | 1008.0 |
| 20260904214021 | 78 | 116 | 0.0 | 1.0 | 0.00 | 0.00 | 0.00 | 61 | 1008.0 |
| 20260904213522 | 78 | 117 | 0.0 | 1.0 | 0.00 | 0.00 | 0.00 | 63 | 1008.0 |
| 20260904213021 | 78 | 117 | 0.0 | 1.0 | 0.00 | 0.00 | 0.00 | 60 | 1007.9 |
| 20260904212521 | 78 | 330 | 0.0 | 1.0 | 0.00 | 0.00 | 0.00 | 60 | 1007.8 |
| 20260904212021 | 78 | 301 | 0.0 | 3.0 | 0.00 | 0.00 | 0.00 | 58 | 1007.9 |
| 20260904211521 | 78 | 252 | 0.0 | 3.0 | 0.00 | 0.00 | 0.00 | 57 | 1007.9 |
| 20260904211022 | 78 | 18 | 1.0 | 3.0 | 0.00 | 0.00 | 0.00 | 58 | 1007.9 |
| 20260904210522 | 79 | 37 | 1.0 | 3.0 | 0.00 | 0.00 | 0.00 | 57 | 1007.9 |
| 20260904205102 | 78 | 329 | 1.0 | 4.0 | 0.00 | 0.00 | 0.00 | 55 | 1007.8 |
| 20260904204521 | 78 | 5 | 1.0 | 3.0 | 0.00 | 0.00 | 0.00 | 56 | 1007.8 |
| 20260904204043 | 79 | 34 | 0.0 | 2.0 | 0.00 | 0.00 | 0.00 | 54 | 1007.8 |
| 20260904203523 | 79 | 17 | 1.0 | 2.0 | 0.00 | 0.00 | 0.00 | 51 | 1007.9 |
| 20260904203023 | 79 | 5 | 1.0 | 2.0 | 0.00 | 0.00 | 0.00 | 53 | 1007.8 |
| 20260904202523 | 80 | 6 | 1.0 | 2.0 | 0.00 | 0.00 | 0.00 | 52 | 1008.0 |
| 20260904202022 | 79 | 21 | 1.0 | 3.0 | 0.00 | 0.00 | 0.00 | 52 | 1007.8 |
| 20260904201522 | 80 | 59 | 0.0 | 2.0 | 0.00 | 0.00 | 0.00 | 55 | 1007.8 |
| 20260904201022 | 80 | 1 | 0.0 | 2.0 | 0.00 | 0.00 | 0.00 | 54 | 1007.8 |
| 20260904200521 | 81 | 346 | 1.0 | 3.0 | 0.00 | 0.00 | 0.00 | 51 | 1007.9 |
| 20260904200021 | 81 | 9 | 0.0 | 2.0 | 0.00 | 0.00 | 0.00 | 53 | 1007.9 |
| 20260904195543 | 81 | 351 | 1.0 | 3.0 | 0.00 | 0.00 | 0.00 | 50 | 1007.8 |
| 20260904195043 | 81 | 341 | 1.0 | 3.0 | 0.00 | 0.00 | 0.00 | 48 | 1007.7 |
| 20260904194523 | 81 | 356 | 1.0 | 4.0 | 0.00 | 0.00 | 0.00 | 50 | 1007.7 |
| 20260904194022 | 80 | 32 | 1.0 | 4.0 | 0.00 | 0.00 | 0.00 | 55 | 1007.7 |
| 20260904193542 | 80 | 327 | 1.0 | 2.0 | 0.00 | 0.00 | 0.00 | 51 | 1007.7 |
| 20260904193022 | 81 | 318 | 1.0 | 3.0 | 0.00 | 0.00 | 0.00 | 53 | 1007.6 |
| 20260904192522 | 81 | 318 | 1.0 | 3.0 | 0.00 | 0.00 | 0.00 | 50 | 1007.6 |
| 20260904192022 | 80 | 329 | 1.0 | 3.0 | 0.00 | 0.00 | 0.00 | 51 | 1007.7 |
| 20260904191521 | 80 | 319 | 0.0 | 2.0 | 0.00 | 0.00 | 0.00 | 56 | 1007.7 |
| 20260904191021 | 81 | 304 | 1.0 | 3.0 | 0.00 | 0.00 | 0.00 | 54 | 1007.8 |
| 20260904190523 | 81 | 354 | 1.0 | 3.0 | 0.00 | 0.00 | 0.00 | 57 | 1008.0 |
| 20260904190023 | 80 | 37 | 1.0 | 3.0 | 0.00 | 0.00 | 0.00 | 57 | 1008.2 |
| 20260904185523 | 79 | 81 | 0.0 | 2.0 | 0.00 | 0.00 | 0.00 | 61 | 1008.2 |
| 20260904185022 | 79 | 309 | 0.0 | 1.0 | 0.00 | 0.00 | 0.00 | 59 | 1008.1 |
| 20260904184522 | 80 | 345 | 1.0 | 2.0 | 0.00 | 0.00 | 0.00 | 59 | 1008.0 |
| 20260904184022 | 80 | 329 | 0.0 | 1.0 | 0.00 | 0.00 | 0.00 | 64 | 1008.1 |
| 20260904183522 | 80 | 340 | 0.0 | 2.0 | 0.00 | 0.00 | 0.00 | 58 | 1008.1 |
| 20260904183021 | 81 | 14 | 1.0 | 2.0 | 0.00 | 0.00 | 0.00 | 55 | 1008.1 |
| 20260904182522 | 81 | 11 | 1.0 | 2.0 | 0.00 | 0.00 | 0.00 | 57 | 1008.0 |
| 20260904182023 | 80 | 321 | 1.0 | 3.0 | 0.00 | 0.00 | 0.00 | 57 | 1008.1 |
| 20260904181521 | 81 | 341 | 1.0 | 2.0 | 0.00 | 0.00 | 0.00 | 58 | 1008.1 |
| 20260904181023 | 81 | 266 | 1.0 | 3.0 | 0.00 | 0.00 | 0.00 | 57 | 1008.1 |
| 20260904180522 | 81 | 339 | 1.0 | 3.0 | 0.00 | 0.00 | 0.00 | 58 | 1008.1 |
| 20260904180022 | 80 | 17 | 1.0 | 2.0 | 0.00 | 0.00 | 0.00 | 62 | 1008.1 |
| 20260904175522 | 80 | 358 | 0.0 | 3.0 | 0.00 | 0.00 | 0.00 | 59 | 1008.1 |
| 20260904175042 | 81 | 336 | 2.0 | 4.0 | 0.00 | 0.00 | 0.00 | 56 | 1008.1 |
| 20260904174522 | 82 | 355 | 1.0 | 3.0 | 0.00 | 0.00 | 0.00 | 57 | 1008.1 |
| 20260904174022 | 81 | 342 | 1.0 | 2.0 | 0.00 | 0.00 | 0.00 | 60 | 1008.0 |
| 20260904173523 | 81 | 355 | 1.0 | 3.0 | 0.00 | 0.00 | 0.00 | 58 | 1008.0 |
| 20260904173023 | 81 | 9 | 1.0 | 2.0 | 0.00 | 0.00 | 0.00 | 58 | 1008.2 |
| 20260904172522 | 81 | 55 | 1.0 | 2.0 | 0.00 | 0.00 | 0.00 | 61 | 1008.1 |
| 20260904172022 | 80 | 275 | 0.0 | 1.0 | 0.00 | 0.00 | 0.00 | 64 | 1008.5 |
| 20260904171522 | 81 | 293 | 0.0 | 2.0 | 0.00 | 0.00 | 0.00 | 60 | 1008.6 |
| 20260904171022 | 81 | 174 | 0.0 | 2.0 | 0.00 | 0.00 | 0.00 | 61 | 1008.5 |
| 20260904170522 | 80 | 24 | 1.0 | 3.0 | 0.00 | 0.00 | 0.00 | 61 | 1008.7 |
| 20260904170021 | 81 | 314 | 1.0 | 3.0 | 0.00 | 0.00 | 0.00 | 60 | 1008.5 |
| 20260904165521 | 81 | 350 | 1.0 | 2.0 | 0.00 | 0.00 | 0.00 | 61 | 1008.6 |
| 20260904165041 | 81 | 37 | 1.0 | 3.0 | 0.00 | 0.00 | 0.00 | 60 | 1008.5 |
| 20260904164520 | 80 | 50 | 1.0 | 3.0 | 0.00 | 0.00 | 0.00 | 62 | 1008.6 |
| 20260904164020 | 80 | 334 | 1.0 | 3.0 | 0.00 | 0.00 | 0.00 | 60 | 1008.7 |
| 20260904163542 | 80 | 18 | 1.0 | 4.0 | 0.00 | 0.00 | 0.00 | 61 | 1008.6 |
| 20260904163022 | 80 | 19 | 1.0 | 4.0 | 0.00 | 0.00 | 0.00 | 59 | 1008.6 |
| 20260904162522 | 80 | 349 | 1.0 | 3.0 | 0.00 | 0.00 | 0.00 | 60 | 1008.7 |
| 20260904162022 | 80 | 329 | 1.0 | 3.0 | 0.00 | 0.00 | 0.00 | 64 | 1008.8 |
| 20260904161541 | 80 | 360 | 1.0 | 4.0 | 0.00 | 0.00 | 0.00 | 61 | 1008.8 |
| 20260904161023 | 80 | 22 | 1.0 | 4.0 | 0.00 | 0.00 | 0.00 | 64 | 1009.0 |
| 20260904160523 | 79 | 351 | 1.0 | 3.0 | 0.00 | 0.00 | 0.00 | 64 | 1009.0 |
| 20260904160023 | 79 | 340 | 1.0 | 3.0 | 0.00 | 0.00 | 0.00 | 65 | 1009.0 |
| 20260904155542 | 79 | 351 | 1.0 | 3.0 | 0.00 | 0.00 | 0.00 | 65 | 1009.0 |
| 20260904155103 | 79 | 7 | 1.0 | 3.0 | 0.00 | 0.00 | 0.00 | 66 | 1009.0 |